Regional Weather Roundup
Issued by NWS

Home | Current Version | Previous Version | Graphics & Text | Print | Product List | Glossary Off
Versions: 1 2 3 4 5 6 7 8 9 10 11 12 13 14 15 16 17 18 19 20 21 22 23 24 25 26 27 28 29 30 31 32 33 34 35 36 37 38 39 40 41 42 43 44 45 46 47 48 49 50

000
ASUS44 KFWD 241015
RWRTX
NORTH TEXAS HOURLY WEATHER ROUNDUP
NATIONAL WEATHER SERVICE FORT WORTH TX
400 AM CST WED JAN 24 2018

NOTE: "FAIR" INDICATES FEW OR NO CLOUDS BELOW 12,000 FEET WITH NO
SIGNIFICANT WEATHER AND/OR OBSTRUCTIONS TO VISIBILITY.

TXZ118-119-241100-
DALLAS/FORT WORTH METROPLEX

CITY           SKY/WX    TMP DP  RH WIND       PRES   REMARKS
DFW AIRPORT    FAIR      33  21  61 CALM      30.38S
DALLAS LOVE    FAIR      36  26  67 CALM      30.41R
FTW MEACHAM    FAIR      37  19  48 N3        30.40R
DAL-EXECUTIVE  FAIR      37  23  56 NW7       30.39R WCI  32
FTW-ALLIANCE   FAIR      25  18  74 CALM      30.40R
FTW-NAS-JRB    FAIR      32  24  72 NW6       30.41R WCI  26
FTW-SPINKS     FAIR      24  19  81 CALM      30.42R
ARLINGTON      FAIR      27  21  78 CALM      30.40S
GRAND PRAIRIE  FAIR      35  21  56 CALM      30.42R
ADDISON        FAIR      37  27  67 CALM      30.42R
MESQUITE       FAIR      32  24  71 CALM      30.41R
LANCASTER      FAIR      29  22  76 CALM      30.41R
$$

TXZ091>094-102>105-117-120-121-131>134-241100-
NORTH CENTRAL TEXAS

CITY           SKY/WX    TMP DP  RH WIND       PRES   REMARKS
SHRMAN/DENISON FAIR      29  20  69 CALM      30.41S
GAINESVILLE    FAIR      27  19  70 CALM      30.42S
BOWIE          FAIR      33  17  52 NW6       30.40R WCI  28
BRIDGEPORT     FAIR      23  17  78 W3        30.43R
DENTON         FAIR      29  19  66 NW3       30.40S
MCKINNEY       FAIR      29  24  82 CALM      30.40R
BONHAM         FAIR      33  25  72 NW6       30.40S WCI  28
GREENVILLE     FAIR      34  28  80 CALM      30.40R
ROCKWALL       FAIR      35  30  81 CALM      30.41R
TERRELL        FAIR      29  25  85 CALM      30.41R
WAXAHACHIE     FAIR      32  22  66 W3        30.41R
CLEBURNE       FAIR      36  16  44 NW6       30.41S WCI  31
GRANBURY       FAIR      27  20  76 SW3       30.42S
$$

TXZ083>090-098>101-113>116-127>130-139>142-154-155-241100-
WESTERN NORTH TEXAS

CITY           SKY/WX    TMP DP  RH WIND       PRES   REMARKS
WICHITA FALLS  FAIR      29  15  56 NW7       30.40S WCI  22
WF-KICKAPOO    FAIR      33  17  52 CALM      30.43S
VERNON         FAIR      31   6  35 NW7       30.42S WCI  24
ABILENE        FAIR      31  17  56 CALM      30.40R
ABILENE-DYESS  FAIR      24  10  55 CALM      30.40R
GRAHAM           N/A     22  15  72 CALM      30.40R
BRECKENRIDGE   FAIR      28  16  61 S3        30.41R
CISCO          FAIR      41  10  28 CALM      30.40R
EASTLAND       FAIR      18  10  71 CALM      30.40S
RANGER         FAIR      32  14  47 CALM      30.40R
MINERAL WELLS  FAIR      27  15  61 NW3       30.39S
STEPHENVILLE   FAIR      30  19  61 NW3       30.41S
COMANCHE       FAIR      39  14  36 W3        30.40S
BROWNWOOD      FAIR      23  12  63 CALM      30.42R
COLEMAN        FAIR      31  14  49 W5        30.40S WCI  26
$$

TXZ143>147-156>162-174-175-241100-
CENTRAL TEXAS

CITY           SKY/WX    TMP DP  RH WIND       PRES   REMARKS
WACO           FAIR      26  20  77 W5        30.41R WCI  20
WACO-MCGREGOR  FAIR      29  19  66 CALM      30.41S
HILLSBORO      FAIR      26  19  74 CALM      30.40R
CORSICANA      FAIR      36  23  59 N7        30.41R WCI  30
MEXIA          FAIR      37  20  50 NW5       30.39S WCI  33
HEARNE         FAIR      27  25  94 CALM      30.41S
CAMERON        FAIR      34  22  61 NW3       30.40S
TEMPLE         FAIR      29  23  78 NW6       30.41R WCI  23
KILLEEN        FAIR      39  17  40 N7        30.38R WCI  34
KILLEEN-SKYLRK FAIR      32  21  64 CALM      30.40R
FORT HOOD      FAIR      35  19  52 CALM      30.36R
GATESVILLE     FAIR      27  18  69 CALM      30.42R
HAMILTON       FAIR      36  16  44 NW6       30.40S WCI  31
LAMPASAS       FAIR      29  17  60 CALM      30.38S
$$

TXZ095>097-106>112-122>126-135>138-148>153-164>167-241100-
EAST TEXAS

CITY           SKY/WX    TMP DP  RH WIND       PRES   REMARKS
PARIS          FAIR      37  20  50 NW6       30.39S WCI  32
SULPHUR SPRNGS FAIR      34  24  66 CALM      30.42R
MOUNT PLEASANT FAIR      26  25  94 CALM      30.42R
GILMER         FAIR      30  27  88 MISG      30.40R
MINEOLA        FAIR      28  25  86 CALM      30.40S
TYLER          FAIR      29  25  85 CALM      30.39R
LONGVIEW       FAIR      30  28  92 CALM      30.39R
MARSHALL       FAIR      28  25  90 CALM      30.42R
ATHENS         FAIR      28  25  86 CALM      30.40R
PALESTINE      FAIR      32  26  79 CALM      30.41R
JACKSONVILLE   FAIR      42  23  47 N3        30.40R
CENTER         FAIR      29  26  88 CALM      30.40R
NACOGDOCHES    FAIR      28  24  85 N3        30.40R
LUFKIN         FAIR      30  26  85 CALM      30.39R
$$

SUPPLEMENTAL OBSERVATIONS (NWS FORT WORTH AREA)

CITY           SKY/WX    TMP DP  RH WIND       PRES   REMARKS
DENISON DAM      N/A     39  28  65 CALM        N/A
CADDO GRASSLND   N/A     30  30 100 S1          N/A
PAT MAYSE LAKE   N/A     36  25  64 W1          N/A
LBJ GRASSLAND    N/A     36  16  44 N2          N/A
COMANCHE         N/A     39  12  33 W6          N/A  WCI  35
MCGREGOR         N/A     28  19  69 S1          N/A
LAKE LIMESTONE   N/A     32  23  69 N5          N/A  WCI  27
ATHENS           N/A     32  28  86 CALM        N/A
$$

SUPPLEMENTAL OBSERVATIONS (NWS NORMAN AREA)

CITY           SKY/WX    TMP DP  RH WIND       PRES   REMARKS
GOODLETT         N/A     31  12  44 NW10      30.41S WCI  22
ODELL            N/A     22  11  60 W7        30.43S WCI  14
CROWELL          N/A     30  10  42 NW10      30.42S WCI  21
KNOX CITY        N/A     22   6  51 SW6       30.43S WCI  14
SEYMOUR          N/A     24   9  53 SW1       30.42S
MILLERS CREEK    N/A     28  18  64 S5          N/A  WCI  23
$$

SUPPLEMENTAL OBSERVATIONS (NWS SAN ANGELO AREA)

CITY           SKY/WX    TMP DP  RH WIND       PRES   REMARKS
WEINERT          N/A     26   7  43 NW5       30.43R WCI  21
HASKELL          N/A     26   4  40 W5        30.42R WCI  20
THROCKMORTON     N/A     28  21  74 SW5       30.42R WCI  23
STAMFORD         N/A     24   5  44 W2        30.42S
CLYDE            N/A     37  12  34 SE6       30.41R WCI  33
HAMBY            N/A     23  12  63 SE2         N/A
IVIE RESERVOIR   N/A     34  27  75 NW3         N/A
COLORADO BEND    N/A     28  14  54 SW1         N/A
$$

SUPPLEMENTAL OBSERVATIONS (NWS SHREVEPORT AREA)

CITY           SKY/WX    TMP DP  RH WIND       PRES   REMARKS
CLARKSVILLE      N/A     36  18  48 NW3         N/A
GILMER           N/A     30  28  93 CALM        N/A
HENDERSON        N/A     28  27  93 CALM        N/A
LUFKIN           N/A     30  28  93 MISG        N/A
N SABINE NF      N/A     30  27  86 MISG        N/A
S SABINE NF      N/A     32  32 100 NW1         N/A
$$

SUPPLEMENTAL OBSERVATIONS ARE A COLLECTION OF AUTOMATED INSTRUMENTS
THAT ARE MAINTAINED BY A VARIETY OF FEDERAL AND STATE AGENCIES.
CERTAIN ELEMENTS...SUCH AS HUMIDITY VALUES AND SUSTAINED WIND
SPEEDS...MAY BE APPROXIMATED.




USA.gov is the U.S. government's official web portal to all federal, state and local government web resources and services.